Flag for U.S.A. Weather past 2 weeks in Pasadena, Texas, U.S.A.

Now
63 °F

Passing clouds.


Feels Like: 63 °F
Forecast: 51 / 74 °F
Wind: 10 mph from North

Location: Houston / Ellington

Current Time: Mar 26, 2015 at 10:55:50 PM

Latest Report: Mar 26, 2015 at 9:50 PM


Visibility: 10 mi

Pressure: 30.07 "Hg

Humidity: 83%

Dew point: 57 °F

Location of PasadenaLocation

Historic Weather in Pasadena — Graph

°F

Pasadena temperature yesterday

Maximum temperature yesterday: 79 °F (at 11:50 AM)
Minimum temperature yesterday: 63 °F (at 1:50 AM)
Average temperature yesterday: 69 °F

Past Weeks' High & Low Weather Summary

 TemperatureHumidityPressure
High82 °F (Mar 17, 3:50 PM)100% (Mar 11, 10:50 PM)30.30 "Hg (Mar 11, 10:50 PM)
Low55 °F (Mar 12, 12:50 AM)44% (Mar 14, 5:50 PM)29.88 "Hg (Mar 26, 3:50 AM)
Average67 °F83%30.06 "Hg
* Reported Mar 11 10:50 PM — Mar 26 9:50 PM, Pasadena, Weather by CustomWeather, © 2015

Note: Actual official high and low records may vary slightly from our data, if they occured in-between our weather recording intervals... More about our weather records

Advertising

Pasadena weather history for previous 24 hours

 ConditionsComfort  
Time TempWeatherWind HumidityBarometerVisibility
9:50 PM
Thu, Mar 26
63 °FPassing clouds.10 mph83%30.07 "Hg10 mi
8:50 PM63 °FPassing clouds.10 mph83%30.04 "Hg10 mi
7:50 PM66 °FBroken clouds.10 mph78%30.02 "Hg10 mi
5:50 PM66 °FPartly sunny.12 mph78%30.00 "Hg10 mi
4:50 PM66 °FBroken clouds.14 mph78%29.98 "Hg10 mi
3:50 PM64 °FScattered clouds.17 mph83%29.96 "Hg10 mi
2:50 PM64 °FScattered clouds.21 mph83%29.94 "Hg10 mi
1:50 PM64 °FPartly sunny.21 mph83%29.96 "Hg7 mi
12:50 PM63 °FOvercast.18 mph88%29.95 "Hg7 mi
12:16 PM63 °FFog.18 mph100%29.96 "Hg5 mi
11:50 AM63 °FFog.20 mph100%29.98 "Hg4 mi
10:50 AM64 °FFog.13 mph100%29.98 "Hg4 mi
9:50 AM68 °FFog.8 mph100%29.96 "Hg4 mi
8:50 AM68 °FFog.3 mph100%29.94 "Hg2 mi
7:50 AM68 °FThunderstorms. Overcast.3 mph100%29.92 "Hg1 mi
6:50 AM66 °FOvercast.No wind94%29.90 "Hg7 mi
5:50 AM66 °FOvercast.No wind94%29.90 "Hg7 mi
4:50 AM64 °FPassing clouds.No wind94%29.88 "Hg7 mi
3:50 AM64 °FPassing clouds.No wind94%29.88 "Hg10 mi
2:50 AM64 °FPassing clouds.5 mph94%29.90 "Hg10 mi
1:50 AM66 °FPassing clouds.No wind94%29.92 "Hg10 mi
12:50 AM66 °FPassing clouds.No wind94%29.95 "Hg10 mi
11:50 PM
Wed, Mar 25
66 °FPassing clouds.No wind94%29.96 "Hg10 mi
10:50 PM66 °FPassing clouds.No wind94%29.94 "Hg10 mi
Weather by CustomWeather, © 2015

See weather overviewHow to use our weather pages